Latest Weather Observations for Inner Beacon

IDQ60801

Issued at 11:35 pm EST Tuesday 30 September 2014 (issued every 30 minutes, with the page automatically refreshed every 10 minutes)

About weather observations | Map of weather stations | Latest weather observations for QLD | Other Formats
Station Details ID: 040926 Name: INNER RECIPROCAL MARKER Lat: -27.26 Lon: 153.24 Height: 20.0 m
Data from the previous 72 hours. | See also: Recent months for locations in Queensland
Date/Time
EST
Temp
°C
App
Temp
°C
Dew
Point
Rel
Hum
%
Delta-T
°C
Wind Press
QNH
hPa
Press
MSL
hPa
Rain
since 9 am
mm
Dir
 
Spd
km/h
Gust
km/h
Spd
kts
Gust
kts
30/11:30pm - - - - - NE 39 44 21 24 - - -
30/11:00pm - - - - - NE 39 46 21 25 - - -
30/10:30pm - - - - - NE 33 39 18 21 - - -
30/10:00pm - - - - - NE 33 39 18 21 - - -
30/09:30pm - - - - - NE 33 39 18 21 - - -
30/09:00pm - - - - - NE 35 43 19 23 - - -
30/08:30pm - - - - - NE 35 43 19 23 - - -
30/08:00pm - - - - - NE 33 41 18 22 - - -
30/07:30pm - - - - - NE 33 43 18 23 - - -
30/07:00pm - - - - - NE 33 43 18 23 - - -
30/06:30pm - - - - - NE 33 39 18 21 - - -
30/06:00pm - - - - - NE 33 39 18 21 - - -
30/05:30pm - - - - - NE 33 41 18 22 - - -
30/05:00pm - - - - - NE 33 41 18 22 - - -
30/04:30pm - - - - - NE 33 41 18 22 - - -
30/04:00pm - - - - - NE 33 41 18 22 - - -
30/03:30pm - - - - - NE 35 41 19 22 - - -
30/03:00pm - - - - - NE 35 41 19 22 - - -
30/02:30pm - - - - - NE 35 41 19 22 - - -
30/02:00pm - - - - - NE 35 41 19 22 - - -
30/01:30pm - - - - - NE 35 41 19 22 - - -
30/01:00pm - - - - - NE 33 37 18 20 - - -
30/12:30pm - - - - - NE 33 37 18 20 - - -
30/12:00pm - - - - - NE 30 35 16 19 - - -
30/11:30am - - - - - NE 28 32 15 17 - - -
30/11:00am - - - - - NE 22 26 12 14 - - -
30/10:30am - - - - - NE 20 22 11 12 - - -
30/10:00am - - - - - NE 15 17 8 9 - - -
30/09:30am - - - - - NE 13 15 7 8 - - -
30/09:00am - - - - - N 11 13 6 7 - - -
30/08:30am - - - - - N 11 13 6 7 - - -
30/08:00am - - - - - N 11 13 6 7 - - -
30/07:30am - - - - - NNW 11 13 6 7 - - -
30/07:00am - - - - - NNW 9 11 5 6 - - -
30/06:30am - - - - - NNW 9 11 5 6 - - -
30/06:00am - - - - - NW 11 13 6 7 - - -
30/05:30am - - - - - NNW 13 15 7 8 - - -
30/05:00am - - - - - NNW 13 15 7 8 - - -
30/04:30am - - - - - N 15 17 8 9 - - -
30/04:00am - - - - - N 15 17 8 9 - - -
30/03:30am - - - - - N 17 17 9 9 - - -
30/03:00am - - - - - N 19 20 10 11 - - -
30/02:30am - - - - - N 19 22 10 12 - - -
30/02:00am - - - - - N 19 20 10 11 - - -
30/01:30am - - - - - N 19 20 10 11 - - -
30/01:00am - - - - - N 22 24 12 13 - - -
30/12:30am - - - - - N 24 30 13 16 - - -
30/12:00am - - - - - N 22 26 12 14 - - -
 
Date/Time
EST
Temp
°C
App
Temp
°C
Dew
Point
Rel
Hum
%
Delta-T
°C
Wind Press
QNH
hPa
Press
MSL
hPa
Rain
since 9 am
mm
Dir
 
Spd
km/h
Gust
km/h
Spd
kts
Gust
kts
29/11:30pm - - - - - NNW 22 26 12 14 - - -
29/11:00pm - - - - - NNW 20 22 11 12 - - -
29/10:30pm - - - - - NNW 20 26 11 14 - - -
29/10:00pm - - - - - N 24 28 13 15 - - -
29/09:30pm - - - - - N 28 33 15 18 - - -
29/09:00pm - - - - - NNE 30 33 16 18 - - -
29/08:30pm - - - - - NE 28 32 15 17 - - -
29/08:00pm - - - - - NE 26 30 14 16 - - -
29/07:30pm - - - - - NE 24 28 13 15 - - -
29/07:00pm - - - - - NE 24 28 13 15 - - -
29/06:30pm - - - - - NE 24 28 13 15 - - -
29/06:00pm - - - - - NE 28 32 15 17 - - -
29/05:30pm - - - - - NE 32 35 17 19 - - -
29/05:00pm - - - - - NE 32 35 17 19 - - -
29/04:30pm - - - - - NE 30 33 16 18 - - -
29/04:00pm - - - - - NE 28 32 15 17 - - -
29/03:30pm - - - - - NE 26 30 14 16 - - -
29/03:00pm - - - - - NE 26 30 14 16 - - -
29/02:30pm - - - - - NE 24 28 13 15 - - -
29/02:00pm - - - - - NE 22 26 12 14 - - -
29/01:30pm - - - - - NE 20 24 11 13 - - -
29/01:00pm - - - - - NE 20 22 11 12 - - -
29/12:30pm - - - - - NE 19 22 10 12 - - -
29/12:00pm - - - - - NE 15 20 8 11 - - -
29/11:30am - - - - - NE 9 13 5 7 - - -
29/11:00am - - - - - NE 6 7 3 4 - - -
29/10:30am - - - - - NW 2 2 1 1 - - -
29/10:00am - - - - - W 4 6 2 3 - - -
29/09:30am - - - - - WSW 4 6 2 3 - - -
29/09:00am - - - - - SW 6 7 3 4 - - -
29/08:30am - - - - - SSW 6 7 3 4 - - -
29/08:00am - - - - - SSW 7 7 4 4 - - -
29/07:30am - - - - - SSW 9 11 5 6 - - -
29/07:00am - - - - - SSW 13 15 7 8 - - -
29/06:30am - - - - - SSW 13 17 7 9 - - -
29/06:00am - - - - - SSW 11 15 6 8 - - -
29/05:30am - - - - - SW 13 15 7 8 - - -
29/05:00am - - - - - SW 13 15 7 8 - - -
29/04:30am - - - - - WSW 9 13 5 7 - - -
29/04:00am - - - - - NE 6 7 3 4 - - -
29/03:30am - - - - - NE 7 9 4 5 - - -
29/03:00am - - - - - NE 7 9 4 5 - - -
29/02:30am - - - - - NE 9 9 5 5 - - -
29/02:00am - - - - - ENE 9 11 5 6 - - -
29/01:30am - - - - - ENE 9 11 5 6 - - -
29/01:00am - - - - - ENE 9 11 5 6 - - -
29/12:30am - - - - - ENE 9 11 5 6 - - -
29/12:00am - - - - - E 9 11 5 6 - - -
 
Date/Time
EST
Temp
°C
App
Temp
°C
Dew
Point
Rel
Hum
%
Delta-T
°C
Wind Press
QNH
hPa
Press
MSL
hPa
Rain
since 9 am
mm
Dir
 
Spd
km/h
Gust
km/h
Spd
kts
Gust
kts
28/11:30pm - - - - - E 11 15 6 8 - - -
28/11:00pm - - - - - E 13 17 7 9 - - -
28/10:30pm - - - - - E 15 17 8 9 - - -
28/10:00pm - - - - - E 19 20 10 11 - - -
28/09:30pm - - - - - E 17 22 9 12 - - -
28/09:00pm - - - - - ESE 17 22 9 12 - - -
28/08:30pm - - - - - ESE 15 19 8 10 - - -
28/08:00pm - - - - - ESE 19 20 10 11 - - -
28/07:30pm - - - - - ESE 17 20 9 11 - - -
28/07:00pm - - - - - ESE 17 20 9 11 - - -
28/06:30pm - - - - - ESE 19 22 10 12 - - -
28/06:00pm - - - - - ESE 13 19 7 10 - - -
28/05:30pm - - - - - E 15 19 8 10 - - -
28/05:00pm - - - - - E 13 19 7 10 - - -
28/04:30pm - - - - - E 15 19 8 10 - - -
28/04:00pm - - - - - E 17 22 9 12 - - -
28/03:30pm - - - - - E 19 20 10 11 - - -
28/03:00pm - - - - - E 20 24 11 13 - - -
28/02:30pm - - - - - E 22 26 12 14 - - -
28/02:00pm - - - - - E 19 22 10 12 - - -
28/01:30pm - - - - - E 19 20 10 11 - - -
28/01:00pm - - - - - ESE 9 17 5 9 - - -
28/12:30pm - - - - - ESE 11 13 6 7 - - -
28/12:00pm - - - - - ESE 11 13 6 7 - - -
28/11:30am - - - - - SSE 9 13 5 7 - - -
28/11:00am - - - - - SSE 15 19 8 10 - - -
28/10:30am - - - - - SSE 15 19 8 10 - - -
28/10:00am - - - - - S 17 22 9 12 - - -
28/09:30am - - - - - S 20 26 11 14 - - -
28/09:00am - - - - - SSE 22 28 12 15 - - -
28/08:30am - - - - - S 24 30 13 16 - - -
28/08:00am - - - - - S 22 28 12 15 - - -
28/07:30am - - - - - S 20 26 11 14 - - -
28/07:00am - - - - - S 20 24 11 13 - - -
28/06:30am - - - - - S 17 22 9 12 - - -
28/06:00am - - - - - S 20 24 11 13 - - -
28/05:30am - - - - - S 19 24 10 13 - - -
28/05:00am - - - - - S 20 22 11 12 - - -
28/04:30am - - - - - S 22 26 12 14 - - -
28/04:00am - - - - - SSE 26 30 14 16 - - -
28/03:30am - - - - - S 19 22 10 12 - - -
28/03:00am - - - - - S 20 22 11 12 - - -
28/02:30am - - - - - S 20 24 11 13 - - -
28/02:00am - - - - - SSE 20 24 11 13 - - -
28/01:30am - - - - - SSE 26 30 14 16 - - -
28/01:00am - - - - - SSE 20 26 11 14 - - -
28/12:30am - - - - - SSE 26 30 14 16 - - -
28/12:00am - - - - - ESE 19 20 10 11 - - -

Other Formats:

Comma delimited format used in spreadsheet applications
http://www.bom.gov.au/fwo/IDQ60801/IDQ60801.94590.axf

JavaScript Object Notation format (JSON) in row-major order
http://www.bom.gov.au/fwo/IDQ60801/IDQ60801.94590.json